Weather History for Pueblo, CO

Change the Weather History Date:

Monday, November 4, 2013

  Actual Average Record
Temperature  
Mean Temperature 40 °F 45 °F  
Max Temperature 48 °F 62 °F 82 °F (1999)
Min Temperature 32 °F 27 °F 3 °F (1991)
Degree Days  
Heating Degree Days 25 20  
Month to date heating degree days 81 79  
Since 1 July heating degree days 535 589  
Cooling Degree Days 0 0  
Month to date cooling degree days 0 0  
Year to date cooling degree days 1230 897  
Moisture  
Dew Point 22 °F    
Average Humidity 52    
Maximum Humidity 75    
Minimum Humidity 28    
Precipitation  
Precipitation 0.00 in 0.02 in 0.50 in (1946)
Month to date precipitation 0.00 0.07  
Year to date precipitation 9.31 11.79  
Snow  
Snow 0.00 in 0.10 in 6.10 in (1946)
Month to date snowfall 0.0 0.4  
Since 1 July snowfall 0.1 2.0  
Since 1 September snowfall 0.1 2.0  
Snow Depth 0.00 in    
Sea Level Pressure  
Sea Level Pressure 29.94 in    
Wind  
Wind Speed 8 mph (ESE)    
Max Wind Speed 35 mph    
Max Gust Speed 40 mph    
Visibility 10 miles    
Events      
T = Trace of Precipitation, MM = Missing Value Source: NWS Daily Summary

Daily Weather History Graph

Daily Weather History Graph

Search for Another Location

Airport:

Trip Planner

Search our weather history database for the weather conditions in past years. The results will help you decide how hot, cold, wet, or windy it might be!

Date:

Astronomy

Nov. 04, 2013 Rise Set
Actual Time 6:27 AM MST 4:54 PM MST
Civil Twilight 6:00 AM MST 5:22 PM MST
Nautical Twilight 5:28 AM MST 5:53 PM MST
Astronomical Twilight 4:57 AM MST 6:24 PM MST
Moon 7:40 AM MST (11/4) 6:02 PM MST (11/4)
Length of Visible Light 11h 22m
Length of Day
10h 27m
New Moon, 2% of the Moon is Illuminated
Nov 4
New Moon
Nov 9
First Quarter
Nov 17
Full
Nov 25
Last Quarter
Dec 2
New

Hourly Weather History & Observations

Time (MST) Temp. Windchill Dew Point Humidity Pressure Visibility Wind Dir Wind Speed Gust Speed Precip Events Conditions
12:53 AM 42.1 °F 33.1 °F 28.0 °F 58% 29.70 in 10.0 mi North 20.7 mph 28.8 mph N/A   Clear
1:53 AM 39.9 °F 34.5 °F 27.0 °F 60% 29.72 in 10.0 mi North 8.1 mph - N/A   Clear
2:53 AM 37.9 °F 32.1 °F 27.0 °F 65% 29.77 in 10.0 mi NNE 8.1 mph - N/A   Clear
3:53 AM 34.0 °F 26.6 °F 26.1 °F 73% 29.81 in 10.0 mi NNE 9.2 mph - N/A   Clear
4:53 AM 32.0 °F 24.2 °F 25.0 °F 75% 29.88 in 10.0 mi South 9.2 mph - N/A   Clear
5:51 AM 32.0 °F 24.2 °F 24.8 °F 75% 29.98 in 10.0 mi SSE 9.2 mph - N/A   Mostly Cloudy
5:53 AM 32.0 °F 24.2 °F 25.0 °F 75% 29.94 in 10.0 mi SSE 9.2 mph - N/A   Mostly Cloudy
6:53 AM 33.1 °F 26.1 °F 26.1 °F 75% 29.98 in 10.0 mi SSE 8.1 mph - N/A   Overcast
7:53 AM 36.0 °F 32.1 °F 27.0 °F 70% 30.01 in 10.0 mi SE 4.6 mph - N/A   Overcast
8:53 AM 37.9 °F 33.5 °F 26.1 °F 62% 30.01 in 10.0 mi Variable 5.8 mph - N/A   Overcast
9:42 AM 39.2 °F 33.0 °F 24.8 °F 56% 30.07 in 10.0 mi SSE 9.2 mph - N/A   Mostly Cloudy
9:53 AM 39.9 °F 33.9 °F 25.0 °F 55% 30.01 in 10.0 mi SSE 9.2 mph - N/A   Mostly Cloudy
10:53 AM 43.0 °F 37.2 °F 24.1 °F 47% 30.01 in 10.0 mi SSE 10.4 mph - N/A   Mostly Cloudy
11:53 AM 45.0 °F 38.9 °F 19.0 °F 36% 29.98 in 10.0 mi East 12.7 mph - N/A   Scattered Clouds
12:53 PM 46.0 °F 44.8 °F 15.1 °F 29% 29.96 in 10.0 mi ENE 3.5 mph - N/A   Clear
1:53 PM 46.9 °F - 15.1 °F 28% 29.94 in 10.0 mi SE 9.2 mph - N/A   Clear
2:53 PM 46.9 °F - 16.0 °F 29% 29.94 in 10.0 mi SE 11.5 mph - N/A   Clear
3:53 PM 46.9 °F - 19.0 °F 33% 29.95 in 10.0 mi ESE 12.7 mph - N/A   Clear
4:53 PM 45.0 °F 39.3 °F 19.0 °F 36% 29.97 in 10.0 mi ESE 11.5 mph - N/A   Clear
5:53 PM 41.0 °F 37.1 °F 16.0 °F 36% 29.99 in 10.0 mi East 5.8 mph - N/A   Clear
6:53 PM 37.9 °F 32.7 °F 15.1 °F 39% 30.01 in 10.0 mi NE 6.9 mph - N/A   Clear
7:53 PM 36.0 °F 29.6 °F 16.0 °F 44% 29.99 in 10.0 mi NE 8.1 mph - N/A   Clear
8:53 PM 37.0 °F 31.6 °F 19.0 °F 48% 29.96 in 10.0 mi ENE 6.9 mph - N/A   Clear
9:53 PM 35.1 °F - 18.0 °F 50% 29.96 in 10.0 mi Calm Calm - N/A   Clear
10:53 PM 39.0 °F 35.7 °F 21.0 °F 49% 29.91 in 10.0 mi SE 4.6 mph - N/A   Clear
11:53 PM 37.0 °F - 21.0 °F 52% 29.89 in 10.0 mi Calm Calm - N/A   Mostly Cloudy